Regional Weather Roundup
Issued by NWS

Home | Current Version | Previous Version | Text Only | Print | Product List | Glossary Off
Versions: 1 2 3 4 5 6 7 8 9 10 11 12 13 14 15 16 17 18 19 20 21 22 23 24 25 26 27 28 29 30 31 32 33 34 35 36 37 38 39 40 41 42 43 44 45 46 47 48 49 50

716
ASUS45 KBOI 191110
RWRID

IDAHO REGIONAL WEATHER ROUNDUP
NATIONAL WEATHER SERVICE BOISE ID
400 AM MST SUN FEB 19 2017

NOTE: "FAIR" INDICATES FEW OR NO CLOUDS BELOW 12000 FEET
WITH NO SIGNIFICANT WEATHER AND/OR OBSTRUCTIONS TO VISIBILITY

IDZ012-014-191200-
SOUTHWEST IDAHO


CITY           SKY/WX    TMP DP  RH WIND       PRES   REMARKS
BOISE          CLOUDY    43  38  82 SE9       29.52R
CALDWELL       CLOUDY    39  39 100 SE5       29.52R
MOUNTAIN HOME  CLOUDY    39  39 100 SE9       29.53R WCI  33
$$

IDZ016-017-191200-
SOUTHCENTRAL IDAHO


CITY           SKY/WX    TMP DP  RH WIND       PRES   REMARKS
BURLEY         LGT RAIN  41  35  79 SW13      29.55S
JEROME         CLOUDY    39  37  92 SE7       29.55F WCI  34
TWIN FALLS     LGT RAIN  40  35  83 S10       29.54F WCI  33
$$

IDZ019>023-191200-
SOUTHEAST IDAHO


CITY           SKY/WX    TMP DP  RH WIND       PRES   REMARKS
IDAHO FALLS    LGT SNOW  33  33 100 S12       29.58R FOG     WCI  24
POCATELLO      LGT RAIN  35  34  96 S10       29.60S WCI  27
REXBURG        LGT RAIN  35  35 100 SW9       29.56R WCI  28
$$

IDZ006-010-011-018-031-032-191200-
CENTRAL IDAHO MOUNTAINS


CITY           SKY/WX    TMP DP  RH WIND       PRES   REMARKS
MCCALL         CLOUDY    33  30  88 SE5       29.45F WCI  29
HAILEY         MIX PCPN  34  34 100 S3        29.56S
STANLEY          N/A     32  31  96 CALM      29.48F
SALMON         CLOUDY    36  34  93 CALM      29.46R
CHALLIS        CLOUDY    34  33  96 CALM      29.46R
$$

IDZ002-004-006-007-026-191200-
NORTHERN IDAHO


CITY           SKY/WX    TMP DP  RH WIND       PRES   REMARKS
LEWISTON       CLOUDY    38  35  89 SE5       29.48F WCI  34
LOWELL           N/A     35  33  92 N3        29.54S
COEUR D`ALENE  CLOUDY    34  33  96 CALM      29.47F
MULLAN PASS    CLOUDY    26  25  96 VRB7      29.39F WCI  18
$$




USA.gov is the U.S. government's official web portal to all federal, state and local government web resources and services.